FW8684 Weather Reports


Display with metric or nautical units.
time (UTC)temp
F
wind
direction
speed
MPH
gust
MPH
rain 1hr
in
rain 24hr
in
rain mn
in
humidity
%
barometer
mb
20260508150023 53 270 3.0 15.0 0.00 0.00 0.00 63 1000.1
20260508145513 52 270 8.0 15.0 0.00 0.00 0.00 62 1000.2
20260508145003 52 248 5.0 16.0 0.00 0.00 0.00 63 1000.5
20260508144453 52 248 3.0 16.0 0.00 0.00 0.00 62 1000.4
20260508143433 52 270 7.0 21.0 0.00 0.00 0.00 64 1000.3
20260508142922 52 270 7.0 24.0 0.00 0.00 0.00 63 1000.3
20260508142412 51 248 9.0 24.0 0.00 0.00 0.00 63 1000.5
20260508141903 51 270 5.0 17.0 0.00 0.00 0.00 63 1000.4
20260508141352 52 248 2.0 18.0 0.00 0.00 0.00 64 1000.7
20260508140332 51 248 6.0 17.0 0.00 0.00 0.00 64 1000.5
20260508135823 51 270 10.0 17.0 0.00 0.00 0.00 64 1000.2
20260508135312 51 270 2.0 18.0 0.00 0.00 0.00 65 1000.1
20260508134802 51 293 8.0 18.0 0.00 0.00 0.00 64 1000.3
20260508134252 51 225 3.0 20.0 0.00 0.00 0.00 64 1000.5
20260508133233 49 248 1.0 15.0 0.00 0.00 0.00 66 1000.4
20260508132721 49 270 5.0 18.0 0.00 0.00 0.00 66 1000.4
20260508132211 49 293 4.0 18.0 0.00 0.00 0.00 67 1000.3
20260508131701 49 270 8.0 21.0 0.00 0.00 0.00 65 1000.5
20260508130648 49 270 2.0 20.0 0.00 0.00 0.00 67 1000.2
20260508125621 49 203 4.0 16.0 0.00 0.00 0.00 67 1000.1
20260508125111 48 225 9.0 16.0 0.00 0.00 0.00 67 999.9
20260508124601 48 248 3.0 17.0 0.00 0.00 0.00 67 999.9
20260508124051 48 270 8.0 17.0 0.00 0.00 0.00 67 999.9
20260508123540 48 293 4.0 15.0 0.00 0.00 0.00 67 999.7
20260508123030 48 248 1.0 13.0 0.00 0.00 0.00 68 999.9
20260508122520 48 270 4.0 15.0 0.00 0.00 0.00 68 999.9
20260508121500 47 225 8.0 16.0 0.00 0.00 0.00 67 999.4
20260508120953 47 270 8.0 16.0 0.00 0.00 0.00 67 999.7
20260508120439 47 248 8.0 14.0 0.00 0.00 0.00 67 999.4
20260508115419 46 293 6.0 13.0 0.00 0.00 0.00 69 999.4
20260508114359 46 270 2.0 16.0 0.00 0.00 0.00 69 999.0
20260508113849 46 225 5.0 16.0 0.00 0.00 0.00 69 998.8
20260508113339 46 248 2.0 13.0 0.00 0.00 0.00 69 998.8
20260508111809 45 270 2.0 15.0 0.00 0.00 0.00 70 998.7
20260508111259 45 270 3.0 14.0 0.00 0.00 0.00 69 998.6
20260508110748 45 270 4.0 13.0 0.00 0.00 0.00 69 998.5
20260508110240 45 270 2.0 11.0 0.00 0.00 0.00 70 998.3
20260508105728 45 293 3.0 14.0 0.00 0.00 0.00 70 998.5
20260508105218 45 248 7.0 18.0 0.00 0.00 0.00 69 998.3
20260508104707 45 270 4.0 18.0 0.00 0.00 0.00 69 998.3
20260508104157 45 270 2.0 13.0 0.00 0.00 0.00 69 998.1
20260508103648 45 225 2.0 13.0 0.00 0.00 0.00 69 998.1
20260508103138 45 248 4.0 14.0 0.00 0.00 0.00 68 998.0
20260508102118 45 270 6.0 14.0 0.00 0.00 0.00 67 997.8
20260508101608 45 270 3.0 18.0 0.00 0.00 0.00 68 997.6
20260508101057 45 270 2.0 18.0 0.00 0.00 0.00 69 997.6
20260508100036 46 248 2.0 15.0 0.00 0.00 0.00 68 997.6
20260508095526 46 270 2.0 14.0 0.00 0.00 0.00 68 997.6
20260508095016 46 248 2.0 14.0 0.00 0.00 0.00 68 997.4
20260508093956 46 248 6.0 15.0 0.00 0.00 0.00 68 997.4
20260508093446 46 248 7.0 14.0 0.00 0.00 0.00 68 997.4
20260508092936 46 248 7.0 14.0 0.00 0.00 0.00 69 997.6
20260508092426 46 203 2.0 14.0 0.00 0.00 0.00 71 997.5
20260508091916 47 225 3.0 11.0 0.00 0.00 0.00 71 997.2
20260508091406 47 225 2.0 15.0 0.00 0.00 0.00 72 997.4
20260508090856 47 293 4.0 15.0 0.00 0.00 0.00 72 997.2
20260508090345 47 248 5.0 15.0 0.00 0.00 0.00 73 997.0
20260508085835 47 248 4.0 14.0 0.00 0.00 0.00 74 997.1
20260508085326 47 225 2.0 16.0 0.00 0.00 0.00 75 997.3
20260508084815 47 225 3.0 16.0 0.00 0.00 0.00 76 997.4
20260508084305 47 248 1.0 11.0 0.00 0.00 0.00 78 997.2
20260508083755 47 248 2.0 14.0 0.00 0.00 0.00 78 997.1
20260508083244 47 248 3.0 14.0 0.00 0.00 0.00 79 997.3
20260508082734 47 270 3.0 13.0 0.00 0.00 0.00 80 997.3
20260508082224 48 270 2.0 14.0 0.00 0.00 0.00 80 997.2
20260508081715 48 225 4.0 14.0 0.00 0.00 0.00 80 997.0
20260508081205 48 248 1.0 14.0 0.00 0.00 0.00 80 997.1
20260508080655 48 293 7.0 17.0 0.00 0.00 0.00 80 997.2
20260508075634 49 248 4.0 14.0 0.00 0.00 0.00 81 997.1
20260508075124 49 248 4.0 14.0 0.00 0.00 0.00 82 997.4
20260508074614 49 270 2.0 11.0 0.00 0.00 0.00 83 996.9
20260508073554 49 225 2.0 11.0 0.00 0.00 0.00 83 997.1
20260508073046 49 270 1.0 9.0 0.00 0.00 0.00 83 997.2
20260508072533 49 248 1.0 11.0 0.00 0.00 0.00 83 997.3
20260508071003 49 270 4.0 11.0 0.00 0.00 0.00 82 997.1
20260508070453 49 248 0.0 16.0 0.00 0.00 0.00 82 997.1
20260508065943 50 225 1.0 16.0 0.00 0.00 0.00 81 997.4
20260508065433 50 270 1.0 11.0 0.00 0.00 0.00 81 997.5
20260508064923 50 225 3.0 16.0 0.00 0.00 0.00 81 997.1
20260508064413 50 270 3.0 16.0 0.00 0.00 0.00 80 997.3
20260508063903 50 270 2.0 13.0 0.00 0.00 0.00 81 997.3
20260508063145 50 225 4.0 0.0 0.00 0.00 0.00 81 997.0
20260508062802 50 203 4.0 16.0 0.00 0.93 0.00 81 996.9
20260508062251 50 270 3.0 16.0 0.00 0.93 0.00 81 997.1
20260508061741 50 248 6.0 14.0 0.00 0.93 0.00 81 997.2
20260508061231 50 248 8.0 14.0 0.00 0.93 0.00 81 997.1
20260508060721 50 248 4.0 11.0 0.00 0.93 0.00 81 997.0
20260508060211 50 248 4.0 13.0 0.00 0.93 0.00 81 997.1
20260508055701 51 270 3.0 13.0 0.00 0.93 0.00 80 997.0
20260508055150 50 248 3.0 11.0 0.00 0.93 0.00 81 997.1
20260508054641 51 270 0.0 11.0 0.00 0.93 0.00 80 997.0
20260508054130 51 225 3.0 11.0 0.00 0.93 0.00 80 997.2
20260508053620 51 270 5.0 11.0 0.00 0.93 0.00 80 997.3
20260508053110 51 248 2.0 8.0 0.00 0.93 0.00 80 997.5
20260508052600 51 180 1.0 13.0 0.00 0.93 0.00 79 997.3
20260508052050 51 270 4.0 17.0 0.00 0.93 0.00 77 997.3
20260508051540 51 248 8.0 17.0 0.00 0.93 0.00 77 997.0
20260508050520 52 225 4.0 15.0 0.00 0.93 0.00 77 997.2
20260508050010 52 248 2.0 15.0 0.00 0.93 0.00 77 997.2
20260508045500 52 225 8.0 15.0 0.00 0.93 0.00 76 997.0
20260508044950 52 225 3.0 22.0 0.00 0.93 0.00 77 996.9
20260508044439 52 248 10.0 22.0 0.00 0.93 0.00 76 996.9
20260508043929 52 225 7.0 21.0 0.00 0.93 0.00 77 997.0
20260508043419 53 225 4.0 21.0 0.00 0.93 0.00 76 996.9
20260508042909 53 203 9.0 20.0 0.00 0.93 0.00 76 996.8
20260508042359 52 225 2.0 17.0 0.00 0.93 0.00 78 996.9
20260508041849 52 248 2.0 17.0 0.00 0.93 0.00 79 997.2
20260508041339 53 248 6.0 17.0 0.00 0.93 0.00 78 997.2
20260508040828 53 270 7.0 18.0 0.00 0.93 0.00 78 997.1
20260508040318 53 270 8.0 20.0 0.00 0.93 0.00 78 997.3
20260508035808 53 248 6.0 20.0 0.00 0.93 0.00 77 997.4
20260508035259 53 248 4.0 22.0 0.00 0.93 0.00 77 997.3
20260508034749 54 203 9.0 25.0 0.00 0.93 0.00 77 997.5
20260508034238 54 293 8.0 25.0 0.00 0.93 0.00 77 997.3
20260508033728 54 248 12.0 21.0 0.00 0.93 0.00 78 997.1
20260508032708 54 225 9.0 23.0 0.00 0.93 0.00 81 997.0
20260508032158 54 270 8.0 22.0 0.00 0.93 0.00 78 996.9
20260508031648 55 248 8.0 20.0 0.00 0.93 0.00 76 996.6
20260508031138 55 270 10.0 21.0 0.00 0.93 0.00 75 996.7
20260508030628 55 270 11.0 22.0 0.00 0.93 0.00 75 997.0
20260508030117 55 248 11.0 22.0 0.00 0.93 0.00 75 996.5
20260508025607 55 225 8.0 20.0 0.00 0.93 0.93 75 996.5
20260508024547 55 270 11.0 16.0 0.00 0.93 0.93 76 996.4
20260508024037 55 293 7.0 15.0 0.00 0.93 0.93 77 996.3
20260508023527 55 225 8.0 15.0 0.00 0.93 0.93 77 996.6
20260508023017 55 248 6.0 14.0 0.00 0.93 0.93 78 996.4
20260508022506 55 270 8.0 16.0 0.00 0.93 0.93 77 996.3
20260508021956 55 293 8.0 16.0 0.00 0.93 0.93 77 996.2
20260508021446 55 248 8.0 17.0 0.00 0.93 0.93 77 996.3
20260508020936 56 270 11.0 18.0 0.00 0.93 0.93 77 996.1
20260508020426 56 225 9.0 18.0 0.00 0.93 0.93 77 995.9
20260508015915 55 293 8.0 17.0 0.00 0.93 0.93 78 995.7
20260508015405 55 225 4.0 17.0 0.00 0.93 0.93 78 995.9
20260508014855 55 225 6.0 17.0 0.00 0.93 0.93 78 995.7
20260508014345 55 248 8.0 17.0 0.00 0.93 0.93 78 995.6
20260508013325 56 225 6.0 15.0 0.00 0.93 0.93 78 995.6
20260508012816 56 248 8.0 18.0 0.00 0.93 0.93 78 995.6
20260508012307 56 225 5.0 20.0 0.00 0.93 0.93 77 995.4
20260508011755 56 270 10.0 20.0 0.00 0.93 0.93 78 995.4
20260508010734 56 270 4.0 15.0 0.00 0.93 0.93 80 995.6
20260508005715 56 248 5.0 13.0 0.00 0.93 0.93 79 995.5
20260508005205 56 248 3.0 15.0 0.00 0.93 0.93 79 995.8
20260508004654 56 248 8.0 15.0 0.00 0.93 0.93 79 995.9
20260508004144 56 270 7.0 11.0 0.00 0.93 0.93 80 995.9
20260508003124 55 248 7.0 11.0 0.00 0.93 0.93 81 996.3
20260508002614 55 203 6.0 11.0 0.00 0.93 0.93 83 996.1
20260508002103 55 248 2.0 9.0 0.00 0.93 0.93 84 996.4
20260508001553 54 270 4.0 9.0 0.00 0.93 0.93 85 996.4
20260508000533 54 270 5.0 11.0 0.00 0.93 0.93 86 995.7
20260507235513 54 248 2.0 8.0 0.00 0.93 0.93 88 996.4
20260507235003 53 270 0.0 8.0 0.00 0.93 0.93 88 996.4
20260507234453 53 293 4.0 6.0 0.00 0.93 0.93 88 996.2
20260507233943 53 225 2.0 6.0 0.00 0.93 0.93 88 996.2
20260507233432 53 270 1.0 6.0 0.00 0.93 0.93 89 996.2
20260507232923 53 248 0.0 4.0 0.00 0.93 0.93 89 996.3
20260507232412 53 315 1.0 4.0 0.00 0.93 0.93 89 996.2
20260507231352 53 293 0.0 2.0 0.00 0.93 0.93 89 996.2
20260507225821 53 0 2.0 4.0 0.00 0.93 0.93 89 996.5
20260507225312 53 23 0.0 2.0 0.00 0.93 0.93 89 996.9
20260507224251 53 0 2.0 4.0 0.00 0.93 0.93 88 996.8
20260507223231 53 338 0.0 2.0 0.00 0.93 0.93 87 996.7
20260507222721 54 315 0.0 0.0 0.00 0.93 0.93 87 997.0
20260507222211 54 0 0.0 2.0 0.00 0.93 0.93 86 996.9
20260507221701 54 0 0.0 2.0 0.00 0.93 0.93 86 996.4
20260507221151 54 0 1.0 4.0 0.00 0.93 0.93 85 996.4
20260507220642 54 315 1.0 4.0 0.00 0.93 0.93 85 996.9
20260507220130 54 45 1.0 4.0 0.00 0.93 0.93 85 996.8
20260507215620 54 315 1.0 4.0 0.00 0.93 0.93 84 997.2
20260507214602 55 293 0.0 4.0 0.00 0.93 0.93 84 997.0
20260507214050 54 270 1.0 4.0 0.00 0.93 0.93 84 997.1
20260507213030 55 315 0.0 0.0 0.00 0.93 0.93 83 996.9
20260507212010 55 0 0.0 0.0 0.00 0.93 0.93 82 996.5
20260507211459 55 315 0.0 0.0 0.00 0.93 0.93 81 996.2
20260507210949 55 293 0.0 0.0 0.00 0.93 0.93 81 996.5
20260507210440 55 248 0.0 0.0 0.00 0.93 0.93 81 996.5
20260507205929 55 248 0.0 9.0 0.00 0.93 0.93 81 996.2
20260507205426 55 270 0.0 13.0 0.00 0.93 0.93 80 996.2
20260507204909 55 225 2.0 13.0 0.00 0.93 0.93 80 996.1
20260507204358 55 270 6.0 14.0 0.01 0.93 0.93 79 995.8
20260507203339 55 248 6.0 13.0 0.01 0.93 0.93 81 994.9
20260507202829 56 293 5.0 15.0 0.01 0.93 0.93 81 994.8
20260507202319 56 158 7.0 15.0 0.01 0.93 0.93 81 994.7
20260507201808 55 225 5.0 11.0 0.01 0.93 0.93 84 994.5
20260507201258 55 248 6.0 16.0 0.02 0.93 0.93 85 994.9
20260507200238 55 270 6.0 8.0 0.02 0.93 0.93 87 995.3
20260507195727 55 315 1.0 8.0 0.02 0.93 0.93 89 995.3
20260507195218 55 293 0.0 13.0 0.02 0.93 0.93 89 995.0
20260507194717 55 270 4.0 13.0 0.01 0.92 0.92 87 995.1
20260507194157 55 270 8.0 11.0 0.01 0.92 0.92 86 994.7
20260507193647 56 293 4.0 11.0 0.01 0.92 0.92 86 993.7
20260507193137 56 270 0.0 11.0 0.01 0.92 0.92 85 993.8
20260507192627 56 225 4.0 11.0 0.01 0.92 0.92 84 992.7
20260507192117 56 180 3.0 11.0 0.01 0.92 0.92 83 992.8
20260507191607 56 203 4.0 14.0 0.00 0.91 0.91 84 992.7
20260507191056 57 225 6.0 15.0 0.00 0.91 0.91 83 992.6
20260507190548 57 248 9.0 16.0 0.00 0.91 0.91 82 993.0
20260507190037 58 225 8.0 20.0 0.00 0.91 0.91 81 993.5
20260507185527 58 225 6.0 20.0 0.00 0.91 0.91 81 993.9
20260507184511 58 203 4.0 15.0 0.00 0.91 0.91 83 993.9
20260507183955 58 248 6.0 15.0 0.00 0.91 0.91 83 993.7
20260507183446 58 180 8.0 16.0 0.00 0.91 0.91 83 993.1
20260507182936 58 225 7.0 16.0 0.00 0.91 0.91 82 993.3
20260507181913 58 180 8.0 18.0 0.00 0.91 0.91 81 993.9
20260507180856 58 203 6.0 17.0 0.00 0.91 0.91 81 994.3
20260507175835 59 248 9.0 18.0 0.00 0.91 0.91 79 995.5
20260507175325 59 270 10.0 18.0 0.00 0.91 0.91 81 995.7
20260507174815 60 225 8.0 16.0 0.00 0.91 0.91 82 995.4
20260507174305 60 135 8.0 16.0 0.00 0.91 0.91 81 995.2
20260507173755 60 248 8.0 16.0 0.00 0.91 0.91 80 994.2
20260507173245 60 248 8.0 16.0 0.00 0.91 0.91 81 994.6
20260507172224 60 248 8.0 18.0 0.00 0.91 0.91 81 994.9
20260507171204 61 248 11.0 20.0 0.00 0.91 0.91 83 994.3
20260507170654 61 248 11.0 18.0 0.00 0.91 0.91 84 994.8
20260507170144 61 270 10.0 18.0 0.00 0.91 0.91 86 994.9
20260507165634 62 203 8.0 18.0 0.00 0.91 0.91 86 995.0
20260507165124 63 248 8.0 17.0 0.00 0.91 0.91 83 994.7
20260507164614 63 248 7.0 23.0 0.00 0.91 0.91 84 994.6
20260507164104 63 225 6.0 23.0 0.00 0.91 0.91 83 995.4
20260507163553 63 225 13.0 23.0 0.00 0.91 0.91 82 996.0
20260507163043 64 248 11.0 20.0 0.00 0.91 0.91 83 996.0
20260507162533 64 248 7.0 21.0 0.00 0.91 0.91 83 995.4
20260507162023 65 225 11.0 21.0 0.00 0.91 0.91 82 995.1
20260507161514 65 248 9.0 17.0 0.00 0.91 0.91 85 994.6
20260507161003 65 225 6.0 14.0 0.00 0.91 0.91 89 994.6
20260507160453 64 248 6.0 15.0 0.00 0.91 0.91 90 994.6
20260507155943 63 225 6.0 17.0 0.00 0.91 0.91 93 994.4
20260507155433 63 180 5.0 17.0 0.00 0.91 0.91 96 993.8
20260507154923 62 203 8.0 14.0 0.00 0.91 0.91 97 993.9
20260507154412 62 180 7.0 11.0 0.00 0.91 0.91 97 994.3
20260507153902 61 270 5.0 11.0 0.00 0.91 0.91 97 994.9
20260507152842 62 180 2.0 9.0 0.00 0.91 0.91 98 993.7
20260507152332 62 180 4.0 9.0 0.00 0.91 0.91 98 992.9
20260507151312 62 203 4.0 9.0 0.01 0.91 0.91 99 992.9
20260507150251 61 180 8.0 11.0 0.01 0.91 0.91 99 992.6